Location: Brno
(49.2000°N, 16.6330°E)
Time: 14:40:21
(UTC+02:00)

Explorer 11/Cluster Stage 4 - Pass Details

Date: 29 July 2021
Orbit: 467 x 1256 km, 28.8° (Epoch: 27 September)

Event Time Altitude Azimuth Distance (km) Brightness Sun altitude
Rises 10:40:37 0° 207° (SSW) 4,189 10.4 48.6°
Reaches altitude 10° 10:47:34 10° 167° (SSE) 3,176 10.3 49.5°
Maximum altitude 10:48:13 10° 163° (SSE) 3,158 10.4 49.6°
Drops below altitude 10° 10:48:51 10° 158° (SSE) 3,156 10.4 49.7°
Sets 10:55:27 0° 118° (ESE) 3,953 10.8 50.5°
